Regional Weather Roundup
Issued by NWS Charleston, SC

Home | Current Version | Previous Version | Text Only | Print | Product List | Glossary On
Versions: 1 2 3 4 5 6 7 8 9 10 11 12 13 14 15 16 17 18 19 20 21 22 23 24 25 26 27 28 29 30 31 32 33 34 35 36 37 38 39 40 41 42 43 44 45 46 47 48 49 50
000
ASUS42 KCHS 250127
RWRCHS

REGIONAL WEATHER ROUNDUP
NATIONAL WEATHER SERVICE CHARLESTON SC
900 PM EDT WED MAY 24 2017

NOTE: "FAIR" INDICATES FEW OR NO CLOUDS BELOW 12,000 FEET WITH NO
SIGNIFICANT WEATHER AND/OR OBSTRUCTIONS TO VISIBILITY.

NOT ALL STATIONS ARE QUALITY CONTROLLED. USE DATA WITH CAUTION...
ESPECIALLY DEWPOINT OBSERVATIONS.

SCZ027-030-031-034>040-042>050-250200-
...SOUTHEAST SOUTH CAROLINA...

CITY           SKY/WX    TMP DP  RH WIND       PRES   REMARKS
N CHARLESTON   CLOUDY    73  68  84 SW10      29.56R
WATERFRONT PRK   N/A     76  69  79 SW10      29.53S
JOHNS ISLAND   MOCLDY    77  70  78 SW10G16   29.57R
PINOPOLIS        N/A     72  70  94 VRB2      29.47S
MONCKS CORNER  CLOUDY    72  68  88 S7        29.55S
SUMMERVILLE    MOCLDY    72  70  94 CALM      29.55S
BEAUFORT MCAS  CLOUDY    74  71  91 S12G18    29.54S
BEAUFORT ARPT  MOCLDY    73  68  83 SW9G16    29.54F
HILTON HEAD IS MOCLDY    75  70  83 SW15G23   29.56S
WALTERBORO     CLOUDY    68  64  88 W6        29.56R
ALLENDALE      CLOUDY    66  64  94 CALM      29.52R

...SOUTHERN MIDLANDS AND PEE DEE...

CITY           SKY/WX    TMP DP  RH WIND       PRES   REMARKS
GEORGETOWN     MOCLDY    72  70  94 S8G16     29.58F
KINGSTREE      CLOUDY    70  66  88 SE8       29.54S
ORANGEBURG     RAIN      68  65  90 S15       29.54R FOG
BARNWELL       MOCLDY    66  66 100 S6        29.53R
AIKEN          MOCLDY    64  64 100 S9        29.53F
MANNING        CLOUDY    72  70  94 SW20      29.54S
COLUMBIA       LGT RAIN  70  66  87 S8        29.50R
SUMTER         LGT RAIN  70  66  88 S9        29.51R
FLORENCE       CLOUDY    70  68  93 S10       29.54F
MYRTLE BEACH   CLOUDY    73  70  88 S16G23    29.59F
N MYRTLE BEACH LGT RAIN  73  69  87 S18G24    29.59F

$$

GAZ063-065-086>088-099>101-113>116-118-119-134>141-150-250200-
...SOUTHEAST GEORGIA...

CITY           SKY/WX    TMP DP  RH WIND       PRES   REMARKS
SAVANNAH ARPT  LGT RAIN  73  65  75 SW15G26   29.54F
HUNTER AAF     CLOUDY    68  68 100 SW7       29.52F
FORT STEWART   CLOUDY    68  64  88 SW6       29.53F
STATESBORO     CLOUDY    68  68 100 S6        29.54R
SYLVANIA       CLOUDY    67  67 100 CALM      29.54R
CLAXTON        MOCLDY   N/A N/A N/A S3        29.55F

...CSRA...CENTRAL AND FAR SOUTHEAST GEORGIA...

CITY           SKY/WX    TMP DP  RH WIND       PRES   REMARKS
THOMSON        CLOUDY    68  67  96 W5        29.54R
AUGUSTA-BUSH   CLOUDY    68  64  87 SW8       29.50S
AUGUSTA-DANIEL CLOUDY    68  63  84 S8        29.51S
SWAINSBORO     MOCLDY    64  64 100 S5        29.53S
VIDALIA        CLOUDY    70  68  94 SW13      29.55R
EASTMAN        FAIR      69  69 100 S7        29.54F
HAZLEHURST     MOCLDY    69  69 100 S6        29.54R
ALMA           CLOUDY    69  66  90 S9        29.55S
WAYCROSS       MOCLDY    71  71 100 SW8       29.57R
JESUP          CLOUDY    68  64  88 SW3       29.57R
BAXLEY         CLOUDY    68  68 100 S8        29.55S
BRUNSWICK      CLOUDY    73  70  88 SW13      29.58R
SAINT SIMONS   CLOUDY    74  70  87 SW15      29.56S

$$

SCZ027-028-034-036>038-045-046-048>050-GAZ119-141-250200-
...LAKE AND SUPPLEMENTAL COASTAL OBSERVATIONS...

STATION/POSITION TIME  TEMP    WIND        PRES    WAVE   SWELL
                       AIR SEA DIR/SP/G            HT/PER HT/PER/DIR
                 (UTC) (F)     (DEG/KT/KT) (MB)    (FT/S) (FT/S/D)
WINYAH BAY       0045   74     190/ 12     1001.0F
LAKE MURRAY      0050   71     170/ 10/ 14  998.6R
ACE BASIN NERRS  0045   74     210/  3     1001.0S
FORT PULASKI     0100   72     250/ 10/ 19 1001.0
SAPELO ISLAND    0100   74     220/ 13     1001.0

$$

ANZ835-935-AMZ111-154-330-350-352-354-370-450-454-472-250200-
...C-MAN AND BUOY OBSERVATIONS...

STATION/POSITION TIME  TEMP    WIND        PRES    WAVE   SWELL
                       AIR SEA DIR/SP/G            HT/PER HT/PER/DIR
                 (UTC) (F)     (DEG/KT/KT) (MB)    (FT/S) (FT/S/D)
BUOY 41004       0100   76 76  170/ 19/ 23 1001.8
BUOY 41008       0050   76 78  220/ 21/ 25 1000.8R   5/ 6   2/160/12
FOLLY BEACH CMAN 0100   77     210/ 24/ 28 1002.0R
CAPERS NEARSHORE 0108   80 78  200/ 21/ 29 1000.8R
FRIPP NEARSHORE  0108   77 78  220/ 19/ 29 1000.1R


STATION/POSITION TIME  TEMP    WIND        PRES    WAVE   SWELL
                       AIR SEA DIR/SP/G            HT/PER HT/PER/DIR
                 (UTC) (F)     (DEG/KT/KT) (MB)    (FT/S) (FT/S/D)
5E ST. MARYS GA  0100      78                N/A     4/ 5
FRYING PAN BUOY  0100   74 77  170/ 17/ 21 1003.9
BUOY 41025       0050   78 75  210/ 21/ 27 1005.6R   5/ 8   3/170/ 8
CAPE LOOKOUT NC  0100   73     190/ 15/ 19 1004.6F
BUOY 41002       0050   78 77  170/ 19/ 25 1009.5S   8/ 8
BUOY 41010       0100   74 79  220/ 25/ 37 1007.5
ST AUGUSTINE FL  0100   73 77  210/ 13/ 16 1004.4R


$$




USA.gov is the U.S. government's official web portal to all federal, state and local government web resources and services.